This is the latest recevied weather packets stored in our database for station/object KD5VOO. If no packets are shown the sender has not sent any weather packets the latest 10 day(s).
| Time | Temp. | Humidity | Pressure | Rain* | Wind** | Luminosity | Snow |
|---|---|---|---|---|---|---|---|
| 1777751493 | 22.22° C | 30% | 1014.3 hPa | 0 mm | - | 231 W/m² | - |
| 1777751190 | 22.22° C | 30% | 1014.3 hPa | 0 mm | - | 232 W/m² | - |
| 1777750583 | 21.67° C | 32% | 1014.3 hPa | 0 mm | - | 237 W/m² | - |
| 1777749975 | 21.67° C | 32% | 1014.3 hPa | 0 mm | - | 234 W/m² | - |
| 1777749673 | 21.67° C | 32% | 1013.9 hPa | 0 mm | - | 235 W/m² | - |
| 1777749370 | 21.67° C | 32% | 1014.3 hPa | 0 mm | - | 235 W/m² | - |
| 1777749068 | 21.67° C | 31% | 1014.3 hPa | 0 mm | - | 234 W/m² | - |
| 1777748765 | 21.67° C | 33% | 1014.3 hPa | 0 mm | - | 234 W/m² | - |
| 1777748462 | 21.67° C | 35% | 1014.3 hPa | 0 mm | - | 236 W/m² | - |
| 1777748156 | 21.11° C | 35% | 1014.3 hPa | 0 mm | - | 234 W/m² | - |
| 1777747854 | 21.11° C | 36% | 1014.3 hPa | 0 mm | - | 232 W/m² | - |
| 1777747550 | 21.11° C | 35% | 1014.3 hPa | 0 mm | - | 233 W/m² | - |
| 1777746942 | 21.11° C | 37% | 1014.6 hPa | 0 mm | - | 231 W/m² | - |
| 1777746638 | 21.11° C | 34% | 1014.3 hPa | 0 mm | - | 231 W/m² | - |
| 1777746333 | 20.56° C | 35% | 1014.3 hPa | 0 mm | - | 231 W/m² | - |
| 1777746030 | 20.56° C | 36% | 1014.3 hPa | 0 mm | - | 230 W/m² | - |
| 1777745728 | 20.56° C | 37% | 1014.6 hPa | 0 mm | - | 231 W/m² | - |
| 1777745427 | 20.56° C | 40% | 1014.6 hPa | 0 mm | - | 229 W/m² | - |
| 1777745123 | 20.56° C | 42% | 1014.3 hPa | 0 mm | - | 229 W/m² | - |
| 1777744820 | 20° C | 41% | 1014.6 hPa | 0 mm | - | 228 W/m² | - |
| 1777744216 | 20° C | 43% | 1014.9 hPa | 0 mm | - | 102 W/m² | - |
| 1777743913 | 20° C | 46% | 1014.6 hPa | 0 mm | - | 58 W/m² | - |
| 1777743307 | 20° C | 46% | 1014.9 hPa | 0 mm | - | 49 W/m² | - |
| 1777742702 | 20° C | 48% | 1014.9 hPa | 0 mm | - | 48 W/m² | - |
| 1777739971 | 19.44° C | 50% | 1015.3 hPa | 0 mm | - | 53 W/m² | - |
* Rain latest hour (hover to see other rain measurements)
** Current wind speed in m/s (hover to see current wind gust speed)